Location: Unspecified
(57.6483°N, 3.3184°W)
Time: 10:30:23
(UTC+00:00)

BlueWalker 3 - Pass Details

Date: 02 February 2026
Orbit: 450 x 461 km, 53.2° (Epoch: 11 February)

Event Time Altitude Azimuth Distance (km) Brightness Sun altitude
Rises 19:55:45 0° 274° (W) 2,461 6.8 -25.8°
Reaches altitude 10° 19:58:18 10° 257° (WSW) 1,585 5.3 -26.1°
Enters shadow 20:00:11 18° 226° (SW) 1,172 4.1 -26.4°
